TimeEDT,TemperatureF,Dew PointF,Humidity,Sea Level PressureIn,VisibilityMPH,Wind Direction,Wind SpeedMPH,Gust SpeedMPH,PrecipitationIn,Events,Conditions,WindDirDegrees,DateUTC
12:55 AM,60.8,57.2,88,29.93,10.0,SW,3.5,-,N/A,,Clear,230,2012-10-06 04:55:00
1:15 AM,59.0,57.2,94,29.93,10.0,SW,3.5,-,N/A,,Clear,230,2012-10-06 05:15:00
1:35 AM,57.2,55.4,94,29.92,10.0,South,3.5,-,N/A,,Clear,190,2012-10-06 05:35:00
1:55 AM,59.0,57.2,94,29.92,10.0,Calm,Calm,-,N/A,,Mostly Cloudy,0,2012-10-06 05:55:00
2:15 AM,59.0,55.4,88,29.92,10.0,SSW,3.5,-,N/A,,Scattered Clouds,210,2012-10-06 06:15:00
2:35 AM,59.0,57.2,94,29.91,10.0,SW,4.6,-,N/A,,Scattered Clouds,230,2012-10-06 06:35:00
2:55 AM,59.0,57.2,94,29.90,10.0,SW,4.6,-,N/A,,Scattered Clouds,230,2012-10-06 06:55:00
3:15 AM,59.0,55.4,88,29.89,10.0,SW,3.5,-,N/A,,Scattered Clouds,220,2012-10-06 07:15:00
3:35 AM,59.0,55.4,88,29.89,10.0,Calm,Calm,-,N/A,,Scattered Clouds,0,2012-10-06 07:35:00
3:55 AM,59.0,55.4,88,29.88,10.0,WSW,3.5,-,N/A,,Scattered Clouds,240,2012-10-06 07:55:00
4:15 AM,59.0,55.4,88,29.88,10.0,West,4.6,-,N/A,,Mostly Cloudy,270,2012-10-06 08:15:00
4:35 AM,59.0,55.4,88,29.88,10.0,WSW,4.6,-,N/A,,Mostly Cloudy,250,2012-10-06 08:35:00
4:55 AM,59.0,55.4,88,29.88,10.0,WSW,4.6,-,N/A,,Scattered Clouds,240,2012-10-06 08:55:00
5:15 AM,60.8,55.4,82,29.87,10.0,WSW,5.8,-,N/A,,Scattered Clouds,240,2012-10-06 09:15:00
5:35 AM,60.8,55.4,82,29.86,10.0,SW,6.9,-,N/A,,Clear,230,2012-10-06 09:35:00
5:55 AM,60.8,55.4,82,29.87,10.0,SW,4.6,-,N/A,,Clear,220,2012-10-06 09:55:00
6:15 AM,59.0,55.4,88,29.87,10.0,SW,4.6,-,N/A,,Clear,220,2012-10-06 10:15:00
6:35 AM,59.0,55.4,88,29.86,10.0,SSW,4.6,-,N/A,,Scattered Clouds,200,2012-10-06 10:35:00
6:55 AM,59.0,55.4,88,29.86,10.0,SSW,4.6,-,N/A,,Scattered Clouds,210,2012-10-06 10:55:00
7:15 AM,59.0,55.4,88,29.86,10.0,SSW,4.6,-,N/A,,Scattered Clouds,210,2012-10-06 11:15:00
7:35 AM,59.0,55.4,88,29.85,10.0,SSW,4.6,-,N/A,,Scattered Clouds,210,2012-10-06 11:35:00
7:55 AM,59.0,55.4,88,29.86,10.0,SW,4.6,-,N/A,,Scattered Clouds,220,2012-10-06 11:55:00
8:15 AM,60.8,55.4,82,29.86,10.0,SW,4.6,-,N/A,,Scattered Clouds,220,2012-10-06 12:15:00
8:35 AM,62.6,57.2,82,29.85,10.0,SSW,4.6,-,N/A,,Clear,210,2012-10-06 12:35:00
8:55 AM,62.6,59.0,88,29.86,10.0,SW,5.8,-,N/A,,Clear,220,2012-10-06 12:55:00
9:35 AM,66.2,59.0,78,29.87,10.0,SW,5.8,-,N/A,,Clear,230,2012-10-06 13:35:00
10:15 AM,66.2,59.0,78,29.87,10.0,SW,6.9,-,N/A,,Scattered Clouds,230,2012-10-06 14:15:00
10:35 AM,68.0,59.0,73,29.87,10.0,West,9.2,-,N/A,,Scattered Clouds,260,2012-10-06 14:35:00
10:55 AM,69.8,59.0,68,29.87,10.0,WSW,4.6,-,N/A,,Mostly Cloudy,240,2012-10-06 14:55:00
11:15 AM,68.0,59.0,73,29.88,10.0,NW,10.4,-,N/A,,Overcast,310,2012-10-06 15:15:00
11:35 AM,66.2,57.2,73,29.89,10.0,NW,9.2,17.3,N/A,,Mostly Cloudy,320,2012-10-06 15:35:00
11:55 AM,64.4,57.2,77,29.91,10.0,NNW,18.4,25.3,N/A,,Mostly Cloudy,330,2012-10-06 15:55:00
12:15 PM,62.6,53.6,72,29.92,10.0,NW,20.7,28.8,N/A,,Overcast,310,2012-10-06 16:15:00
12:35 PM,60.8,51.8,72,29.93,10.0,NW,16.1,25.3,N/A,,Overcast,310,2012-10-06 16:35:00
12:55 PM,60.8,51.8,72,29.94,10.0,NW,19.6,24.2,N/A,,Overcast,310,2012-10-06 16:55:00
1:15 PM,60.8,50.0,68,29.95,10.0,WNW,16.1,25.3,N/A,,Overcast,290,2012-10-06 17:15:00
1:35 PM,62.6,50.0,63,29.94,10.0,NW,23.0,31.1,N/A,,Unknown,310,2012-10-06 17:35:00
1:55 PM,64.4,50.0,59,29.95,10.0,WNW,16.1,20.7,N/A,,Scattered Clouds,300,2012-10-06 17:55:00
2:15 PM,62.6,50.0,63,29.95,10.0,NW,23.0,28.8,N/A,,Unknown,310,2012-10-06 18:15:00
2:35 PM,62.6,48.2,59,29.95,10.0,WNW,29.9,-,N/A,,Clear,300,2012-10-06 18:35:00
2:55 PM,60.8,46.4,59,29.97,10.0,NW,21.9,28.8,N/A,,Scattered Clouds,310,2012-10-06 18:55:00
3:15 PM,60.8,46.4,59,29.98,10.0,NW,17.3,25.3,N/A,,Unknown,320,2012-10-06 19:15:00
3:35 PM,60.8,46.4,59,29.99,10.0,NW,16.1,20.7,N/A,,Unknown,320,2012-10-06 19:35:00
3:55 PM,59.0,46.4,63,29.99,10.0,West,13.8,-,N/A,,Unknown,280,2012-10-06 19:55:00
4:15 PM,59.0,46.4,63,29.99,10.0,NW,13.8,19.6,N/A,,Unknown,320,2012-10-06 20:15:00
4:35 PM,59.0,46.4,63,29.99,10.0,NW,11.5,-,N/A,,Scattered Clouds,310,2012-10-06 20:35:00
4:55 PM,59.0,44.6,59,29.98,10.0,NW,6.9,-,N/A,,Scattered Clouds,320,2012-10-06 20:55:00
5:15 PM,59.0,44.6,59,29.99,10.0,WNW,9.2,-,N/A,,Mostly Cloudy,290,2012-10-06 21:15:00
5:35 PM,59.0,44.6,59,29.99,10.0,WNW,10.4,-,N/A,,Scattered Clouds,300,2012-10-06 21:35:00
5:55 PM,59.0,42.8,55,29.99,10.0,West,8.1,-,N/A,,Clear,280,2012-10-06 21:55:00
6:15 PM,57.2,42.8,59,30.00,10.0,WNW,8.1,-,N/A,,Clear,290,2012-10-06 22:15:00
6:35 PM,55.4,42.8,63,30.00,10.0,WNW,6.9,-,N/A,,Scattered Clouds,290,2012-10-06 22:35:00
7:15 PM,51.8,42.8,71,30.02,10.0,Calm,Calm,-,N/A,,Scattered Clouds,0,2012-10-06 23:15:00
7:35 PM,50.0,44.6,82,30.02,10.0,Calm,Calm,-,N/A,,Scattered Clouds,0,2012-10-06 23:35:00
7:55 PM,50.0,44.6,82,30.03,10.0,Calm,Calm,-,N/A,,Clear,0,2012-10-06 23:55:00
8:15 PM,48.2,44.6,87,30.04,10.0,Calm,Calm,-,N/A,,Clear,0,2012-10-07 00:15:00
8:35 PM,51.8,42.8,71,30.05,10.0,Calm,Calm,-,N/A,,Clear,0,2012-10-07 00:35:00
8:55 PM,51.8,42.8,71,30.05,10.0,West,4.6,-,N/A,,Clear,260,2012-10-07 00:55:00
9:15 PM,46.4,42.8,87,30.06,10.0,West,5.8,-,N/A,,Clear,280,2012-10-07 01:15:00
9:35 PM,48.2,42.8,82,30.07,10.0,SE,3.5,-,N/A,,Clear,130,2012-10-07 01:35:00
9:55 PM,46.4,42.8,87,30.07,10.0,Calm,Calm,-,N/A,,Mostly Cloudy,0,2012-10-07 01:55:00
10:15 PM,46.4,42.8,87,30.08,10.0,WNW,3.5,-,N/A,,Mostly Cloudy,290,2012-10-07 02:15:00
10:35 PM,46.4,42.8,87,30.08,10.0,WNW,4.6,-,N/A,,Mostly Cloudy,290,2012-10-07 02:35:00
10:55 PM,44.6,41.0,87,30.08,10.0,Calm,Calm,-,N/A,,Scattered Clouds,0,2012-10-07 02:55:00
11:15 PM,44.6,42.8,93,30.09,10.0,Calm,Calm,-,N/A,,Clear,0,2012-10-07 03:15:00
11:35 PM,44.6,42.8,93,30.08,10.0,NW,6.9,-,N/A,,Clear,310,2012-10-07 03:35:00
11:55 PM,46.4,42.8,87,30.07,10.0,WNW,4.6,-,N/A,,Clear,300,2012-10-07 03:55:00